STARLINK-33583, 63503

Orbit data source: Space-Track

STARLINK-33583, 63503 is a payload satellite owned by SpaceX/Seattle (US) in LEO that was launched on Mon, 07 Apr 2025 UTC via an FALCON 9 launch vehicle from the Air Force Western Test Range (AFWTR). Payload-class satellites include a variety of spacecraft equipped with specific instruments for various scientific and technological missions. These include communications satellites like Starlink; space stations such as the ISS; scientific satellites like the Hubble; Earth observation satellites from companies like Planet Labs, Umbra, and HawkEye 360; GPS; miniature CubeSats for education and research; and military/defense satellites.

Loading next visibility...
Identifier
63503, 2025-071L
Orbit
LEO
Country
Flag of USUS
Related business
Manufacturer
SpaceX/Seattle
Mission
Operational Commercial Communications
Bus & Motor
STARLINK V2MO, Unknown motor
Mass
575 kg wet, ~530 kg dry
Launch date (UTC)
2025-04-07 (1 year ago)
Launch vehicle
FALCON 9
Launch site
Air Force Western Test Range (AFWTR)
Object type
Payload
Rocket body
Debris
Shape & HBR
Box + 1 Pan, 17.7 m
Radar Cross Section
41.120 m², Large (>1 m²)

Expand to show TLE details & history
Last TLE update: 13 hours ago

TLE from 13 hours ago
0 STARLINK-33583
1 63503U 25071L   26262.84184018  .00011987  00000-0  36514-3 0  9992
2 63503  53.1604 311.1123 0000788 270.7258  89.3655 15.34416145 82598
Epoch: 2026-09-19T20:12Z
TLE epoch observation values (Epoch: 2026-09-19T20:12:14.991Z)
Latitude
0.00003°
Longitude
9.30528°
Altitude
463.551 km
Speed
7.636 km/s
True Right ascension
20h 44m 26s
True Declination
0° 00' 00"
Sunlit
Object was in full shadow at epoch
Visualization orbit readout
Latitude
Unknown
Longitude
Unknown
Altitude
Unknown
Speed
Unknown
Apparent Right ascension
Unknown
Apparent Declination
Unknown
Sunlit
N/A
Visualization observer readout
Local Sidereal Time
02:37:12
Azimuth
Unknown
Elevation
Unknown
Doppler factor
Unknown
Orbital elements
Apogee altitude
463.451 km
Perigee altitude
462.373 km
Semi-major axis
6,841.049 km
Eccentricity
0.00008
Inclination
53.1604°
RAAN
311.1123°
Arg. of periapsis
270.7258°
True anomaly
89.37453°
Mean anomaly
89.3655°
Eccentric anomaly
89.37001°
Mean motion
3.83583 °/min
Orbital period
93.85 mins
BSTAR
0.00036514
Loading maneuver chart data...
Computing Atmospheric mass density...
Loading historical data...
Loading historical data...
Loading historical data...
Loading historical data...
Loading historical data...
Loading historical data...
Loading historical data...

Documentation

Showing up to 5 results
|